Regional Weather Roundup
Issued by NWS Newport/Morehead, NC

Current Version | Previous Version | Graphics & Text | Print | Product List | Glossary Off
Versions: 1 2 3 4 5 6 7 8 9 10 11 12 13 14 15 16 17 18 19 20 21 22 23 24 25 26 27 28 29 30 31 32 33 34 35 36 37 38 39 40 41 42 43 44 45 46 47 48 49 50

000
ASUS42 KMHX 230414
RWRMHX
WEATHER ROUNDUP FOR EASTERN NORTH CAROLINA
NATIONAL WEATHER SERVICE NEWPORT/MOREHEAD CITY NC
1100 PM EST WED NOV 22 2017

NOTE: "FAIR" INDICATES FEW OR NO CLOUDS BELOW 12,000 FEET
WITH NO SIGNIFICANT WEATHER AND/OR OBSTRUCTIONS TO VISIBILITY

NCZ015>017-031-032-045>047-102-103-230500-
NORTH COAST

CITY           SKY/WX    TMP DP  RH WIND       PRES   REMARKS
EDENTON        CLEAR     47  34  62 CALM      30.15R
ELIZABETH CITY PTCLDY    46  37  71 N9        30.14R
KITTY HAWK     CLEAR     50  37  62 N7G16     30.11R
MANTEO         CLEAR     50  39  67 NE15      30.12R

$$

NCZ045>047-081-094-103-104-230500-
CENTRAL COAST

CITY           SKY/WX    TMP DP  RH WIND       PRES   REMARKS
FRISCO         CLEAR     53  44  71 NE10G22   30.10R

$$

NCZ095-097-098-100-101-230500-
SOUTHERN COAST

CITY           SKY/WX    TMP DP  RH WIND       PRES   REMARKS
BEAUFORT       CLEAR     50  45  83 NE9       30.10R
CEDAR ISLAND   NOT AVBL
JACKSONVILLE   CLEAR     49  40  71 N3        30.09
PINEY ISLAND     N/A    N/A N/A N/A NE16G25   30.10
WILMINGTON     CLEAR     47  40  76 N5        30.09R


$$

NCZ011>013-027>030-043-044-078>080-089-090>093-098-230500-
COASTAL PLAIN

CITY           SKY/WX    TMP DP  RH WIND       PRES   REMARKS
AHOSKIE        CLEAR     42  30  60 N5        30.17R
CLINTON        PTCLDY    51  32  49 N7        30.13R
ELIZABETHTOWN  NOT AVBL
GOLDSBORO      CLOUDY    49  34  55 N10       30.12R
GREENVILLE     CLEAR     45  34  65 N7        30.16R
HAVELOCK       CLEAR     51  44  77 NE13      30.12R
KENANSVILLE    CLEAR     46  34  61 N7        30.12S
KINSTON        CLEAR     48  37  65 N12       30.14R
NEW BERN       CLEAR     48  44  86 NE9       30.12R
RICHLANDS      CLEAR     46  38  73 N5        30.11R
ROCKY MOUNT    PTCLDY    42  34  73 NE7       30.16R
WASHINGTON     CLEAR     46  37  69 NE9       30.14R
WHITEVILLE     CLEAR     51  37  57 CALM      30.11R

$$

AMZ130-135-150-152-154-156-158-170-250-252-270-ANZ085-086-088-633-658-670-230500-
MARINE OBSERVATIONS

STATION/POSITION TIME  TEMP    WIND        PRES    WAVE   SWELL
                       AIR SEA DIR/SP/G            HT/PER HT/PER
                 (UTC) (F)     (DEG/KT/KT) (MB)    (FT/S) (FT/S)
CHESAPEAKE LIGHT NOT AVBL
64 E VA BEACH    0350   52 62  360/ 19/ 25 1019.3    9/ 7
DUCK             0336   52 59   10/ 19/ 24 1019.2
2 E DUCK         0400      61                N/A     7/ 7   2/11
OREGON INLET     0336   52 57   10/ 14/ 20 1019.3
13E OREGON INLT  0348      66                N/A     8/ 7   7/ 7
HATTERAS CG      0336   55 60   20/ 19/ 23 1018.7
DIAMOND BUOY     0400   59 72   10/ 19/ 25 1018.6
CAPE LOOKOUT     0400           20/ 15/ 17 1019.3
BEAUFORT LAB     0336   52 61   40/  5/ 10 1019.0
30 SE NEW RVR IN 0308   62 66   50/ 10/ 16 1018.3
30 SE NEW RVR IN 0400      67                N/A     5/ 9   2/11
27 SE WRIGHTSVLE 0308   63 69   30/ 17/ 25 1017.6
5 SE WRIGHTSVLE  0308   60 63   10/ 12/ 17 1018.0
225 S CAPE HAT   0350   72 76   20/  8/ 12 1014.3    6/ 9   5/ 9
41 SE CHARLESTON 0400   67 75   30/ 16/ 21 1017.1

$$



USA.gov is the U.S. government's official web portal to all federal, state and local government web resources and services.